SCP
0 0 0 0 0 0 0 0 0 0 0 0 0 0 0 0 0 0 0 0 0 0 0 0 0 0 0 0 0 0 0 1 1 1 1 1 1 1 1 1 1 1 0
0 0 0 0 0 0 0 0 0 0 -0 -0 0 0 0 0 0 0 0 0 0 0 0 0 0 0 0 0 0 0 0 0 1 1 1 1 1 1 1 1 1 1 0
0 0 0 0 0 0 0 -0 -0 -0 0 -0 -0 -0 0 0 0 0 0 0 0 0 0 0 0 0 0 0 0 0 0 0 0 1 1 1 1 1 1 1 1 1 0
0 0 0 0 0 0 0 0 -0 0 -0 -0 -0 0 0 0 0 0 0 0 0 0 0 0 0 0 0 0 0 0 0 0 0 0 0 1 1 1 1 1 1 1 1
0 0 0 0 0 0 0 0 0 0 -0 -0 -0 0 0 0 0 0 0 0 0 0 0 0 0 0 0 0 0 0 0 0 0 0 0 0 1 1 1 1 1 1 1
0 0 0 0 0 0 0 0 0 0 -0 -0 -0 0 0 0 0 0 0 0 0 0 0 0 0 0 0 0 0 0 0 0 0 0 0 0 0 0 0 1 1 1 1
0 0 0 0 0 0 0 0 0 0 0 -0 -0 -0 0 0 0 0 0 0 0 0 0 0 0 0 0 0 0 0 0 0 0 0 0 0 0 0 1 0 1 1 1
0 0 0 0 0 0 0 0 0 0 0 -0 -0 -0 -0 -0 0 0 0 0 0 0 0 0 0 0 0 0 0 0 0 0 0 0 0 0 0 0 0 1 1 1 1
0 0 0 0 0 0 0 0 0 0 0 0 0 0 -0 0 0 0 0 0 0 0 0 0 0 0 0 -0 0 0 0 0 0 0 0 0 0 0 0 1 1 1 1
0 0 0 0 0 0 0 0 0 0 0 0 0 0 0 0 0 0 0 0 0 0 0 0 0 0 0 0 -0 0 0 0 0 0 0 0 0 0 0 0 1 1 1
0 0 0 0 0 0 0 0 0 0 0 0 0 0 0 0 0 0 0 0 0 0 0 0 0 0 0 0 0 -0 -0 -0 -0 -0 -0 0 0 0 0 0 0 1 1
0 0 0 0 0 0 0 0 0 0 0 0 0 0 0 0 0 0 0 0 0 0 0 0 0 0 0 0 0 -0 -0 -0 0 0 0 -0 0 0 0 0 0 0 1
0 0 0 0 0 0 0 0 0 0 0 0 0 0 0 0 0 0 0 0 0 0 0 0 0 0 0 0 0 0 -0 -0 0 0 0 0 0 -0 -0 0 0 0 0
0 0 0 0 0 0 0 0 0 0 0 0 0 0 0 0 0 0 0 0 0 0 0 0 0 0 0 0 0 0 0 0 0 0 0 0 0 0 -0 0 0 0 0
0 0 0 0 0 0 0 0 0 0 0 0 0 0 0 0 0 0 0 0 0 0 0 0 0 0 0 0 0 0 0 0 0 0 0 0 0 0 0 -0 0 0 0
0 0 0 0 0 0 0 0 0 0 0 0 0 0 0 0 0 0 0 0 0 0 0 0 0 0 0 0 0 0 0 0 0 0 0 0 0 0 0 0 0 0 0
0 0 0 0 0 0 0 0 0 0 0 0 0 0 0 0 0 0 0 0 0 0 0 0 0 0 0 0 0 0 0 0 0 0 0 0 0 0 0 0 0 0 0
0 0 0 0 0 0 0 0 0 0 0 0 0 0 0 0 0 0 0 0 0 0 0 0 0 0 0 0 0 0 0 0 0 0 0 0 0 0 0 0 0 0 0
0 0 0 0 0 0 0 0 0 0 0 0 0 0 0 0 0 0 0 0 0 0 0 0 0 0 0 0 0 0 0 0 0 0 0 0 0 0 0 0 0 0 0
0 0 0 0 0 0 0 0 0 0 0 0 0 0 0 0 0 0 0 0 0 0 0 0 0 0 0 0 0 0 0 0 0 0 0 0 0 0 0 0 0 0 0
0 0 0 0 0 0 0 0 0 0 0 0 0 0 0 0 0 0 0 0 0 0 0 0 0 0 0 0 0 0 0 0 0 0 0 0 0 0 -0 0 0 0 0
0 0 0 0 0 0 0 0 0 0 0 0 0 0 0 0 0 0 0 0 0 0 0 0 0 0 0 0 0 0 0 0 -0 0 -0 -0 0 0 0 0 0 0 0
0 0 0 0 0 0 0 0 0 0 0 0 0 0 0 0 0 0 0 0 0 0 0 0 0 0 0 0 0 0 0 0 -0 -0 -0 -0 -0 0 0 0 0 0 0
0 0 0 0 0 0 0 0 0 0 0 0 0 0 0 0 0 0 0 0 0 0 0 0 0 0 0 0 0 0 0 0 0 0 -0 -0 -0 0 0 0 0 0 0
0 0 0 0 0 0 0 0 0 0 0 0 0 0 0 0 0 0 0 0 0 0 0 0 0 0 0 0 0 0 0 0 0 0 0 -0 0 0 0 0 0 0 0
0 0 0 0 0 0 0 0 0 0 0 0 0 0 0 0 0 0 0 0 0 0 0 0 0 0 0 0 -0 0 0 0 -0 -0 0 0 0 -0 -0 -0 -0 0 -0
Wind_Speed_500mb
22 19 20 21 22 27 33 37 40 41 37 36 39 41 40 41 44 49 50 47 45 47 50 50 50 50 51 52 54 61 67 68 59 63 69 68 66 66 66 68 66 68 79
22 20 21 19 23 30 36 41 43 44 45 45 42 43 45 45 44 45 47 49 51 51 50 52 54 54 52 50 52 54 61 66 69 65 67 72 71 72 73 73 76 75 78
25 22 20 20 25 32 39 45 45 44 45 47 50 52 52 52 52 49 47 47 47 46 48 51 51 54 57 56 53 54 56 62 65 70 72 71 72 74 77 80 81 85 85
24 21 19 21 27 33 39 42 42 42 46 51 55 55 58 61 60 58 52 47 41 41 41 41 45 45 49 52 54 55 58 58 65 69 73 78 75 73 77 83 86 88 90
27 22 20 24 29 36 38 41 42 45 49 53 60 62 62 63 61 48 46 42 42 37 27 41 54 49 45 48 52 52 50 59 65 67 76 75 82 80 77 81 87 90 94
28 22 23 28 34 38 39 40 40 40 47 56 64 68 67 62 57 51 38 31 35 49 53 52 42 52 61 52 45 47 49 46 53 67 71 79 76 84 85 80 85 87 92
29 26 29 37 37 38 38 39 39 43 45 52 64 76 72 58 35 22 36 57 58 50 51 49 64 51 42 59 57 64 67 67 58 52 55 69 81 78 86 88 84 91 97
35 33 38 39 37 36 37 38 39 42 45 47 54 60 38 57 13 47 62 46 53 48 45 53 52 73 78 63 71 74 57 53 57 55 51 56 62 76 85 87 88 89 97
41 37 38 39 40 38 37 38 39 41 46 47 46 41 28 21 79 42 83 36 36 48 58 69 76 75 79 70 77 85 79 67 70 78 79 73 69 75 73 86 92 92 97
49 44 39 42 41 39 39 42 43 42 46 51 53 51 48 54 40 62 62 73 82 80 76 90 88 91 100 100 98 95 99 97 88 81 79 77 74 78 83 84 90 95 97
53 48 41 42 41 40 42 46 45 42 47 54 53 56 58 58 54 58 102 92 94 103 101 101 104 105 109 109 108 108 108 107 107 105 96 96 97 89 89 93 95 95 98
57 48 45 44 42 42 45 48 49 49 52 57 58 58 58 57 59 56 76 111 109 117 111 112 113 114 115 116 111 109 109 108 100 94 96 99 98 103 97 101 102 101 100
59 51 50 46 43 44 47 50 50 52 55 59 59 60 60 60 61 64 74 99 109 127 119 121 111 114 116 114 114 115 116 109 95 92 93 97 102 92 93 95 112 107 104
62 57 51 47 45 46 49 52 52 55 58 59 59 60 63 64 64 65 69 74 100 122 130 122 113 105 107 111 111 91 90 93 90 95 86 88 91 90 102 102 102 124 113
66 58 52 49 48 48 50 51 52 53 54 56 57 60 62 65 67 69 71 72 63 92 133 145 110 107 95 90 97 88 93 90 93 99 100 93 91 91 100 115 109 115 132
67 58 54 50 49 49 51 51 50 49 53 53 58 62 64 66 72 76 78 76 69 79 98 138 148 125 109 102 95 96 100 118 117 117 115 107 109 111 107 108 106 112 125
67 61 54 51 50 50 50 49 47 49 52 55 59 64 66 68 77 82 80 82 82 76 86 140 140 148 127 104 96 96 105 114 116 112 109 108 116 123 124 122 102 111 106
64 55 52 51 50 48 47 47 48 50 54 57 60 64 69 73 78 80 83 84 84 78 77 94 128 129 132 109 96 100 106 111 121 124 116 105 105 98 118 130 113 113 113
62 56 54 51 48 45 45 48 51 52 55 58 61 67 71 74 79 80 82 82 82 79 79 85 108 104 119 112 107 106 114 108 96 86 87 96 107 110 107 118 125 116 115
61 57 53 49 45 43 47 47 51 54 56 60 65 69 73 71 75 75 75 77 83 84 87 91 97 100 96 97 94 94 105 92 93 88 84 90 96 99 100 99 123 106 102
62 57 52 47 43 44 45 45 49 52 57 64 67 69 69 67 68 64 70 77 81 86 87 91 98 94 92 89 88 91 94 96 112 98 97 91 82 83 91 102 82 91 101
64 58 50 46 43 44 40 45 50 53 60 64 67 66 66 70 73 63 67 71 76 86 94 93 98 97 97 98 97 95 94 87 99 91 61 87 65 63 55 54 65 72 95
63 54 48 43 42 39 38 45 49 54 59 61 63 66 71 74 78 83 81 81 86 87 87 94 107 101 104 100 99 100 95 94 104 112 84 103 103 89 79 62 58 77 79
58 50 44 44 39 36 39 46 51 53 55 57 60 65 71 78 78 75 86 92 93 89 89 93 103 110 108 101 109 112 110 107 111 114 84 88 106 95 86 81 71 64 84
56 47 52 41 38 33 40 44 46 48 51 56 61 62 65 83 69 69 81 92 101 102 99 89 93 99 102 100 98 101 109 103 107 104 82 70 83 86 84 87 72 68 83
52 60 44 43 36 32 37 39 40 39 49 56 62 71 75 64 66 76 87 92 101 94 95 97 104 108 91 92 94 90 97 103 94 100 89 78 86 67 64 57 50 41 76
Wind_Direction_500mb
270 280 295 303 315 322 320 324 324 321 320 320 322 322 319 315 312 311 310 307 303 300 299 296 294 293 289 284 274 267 264 262 262 262 261 259 253 250 249 246 245 247 251
260 270 281 293 308 319 325 325 325 327 330 332 333 330 326 323 321 316 312 311 307 304 298 295 293 291 289 287 281 271 263 262 262 258 261 257 257 252 249 247 248 245 250
251 265 276 297 315 321 324 327 329 330 332 332 331 332 329 327 324 321 314 309 305 300 297 294 290 288 287 284 280 276 271 261 259 259 255 259 256 254 251 249 247 246 246
251 260 275 301 316 318 323 326 328 330 333 332 330 329 328 327 327 322 317 311 305 299 297 301 302 299 292 292 285 275 271 269 261 256 257 255 258 256 253 252 250 249 249
250 260 282 306 311 312 321 327 330 332 333 332 328 328 329 326 324 325 320 313 306 306 311 313 309 304 301 298 296 291 280 271 266 262 251 255 255 257 255 253 251 247 248
247 259 280 296 301 308 320 325 327 330 333 332 328 326 328 329 330 320 322 333 329 310 310 313 313 310 310 312 306 306 299 294 283 269 261 255 255 256 257 255 253 250 241
242 258 278 291 297 307 316 320 323 326 333 331 328 328 332 332 325 330 327 317 312 311 303 295 299 295 302 306 297 295 295 296 295 285 281 270 257 252 257 257 254 252 248
242 256 276 288 293 300 306 314 316 322 325 330 326 327 325 337 300 307 298 301 304 294 293 295 298 294 298 299 294 294 293 286 285 283 279 260 265 260 252 256 255 253 249
240 252 271 284 289 295 302 307 309 317 316 323 321 313 322 308 311 320 311 312 301 297 296 292 295 297 302 302 299 297 294 297 286 285 279 276 262 257 259 253 255 252 252
240 248 264 278 285 292 298 301 305 311 307 313 314 312 305 299 313 313 312 301 307 307 305 303 303 301 300 300 299 299 297 295 285 289 291 288 271 264 253 252 251 252 249
239 248 263 275 282 288 292 296 299 304 306 307 307 306 303 298 292 287 300 303 303 302 302 301 300 299 300 299 299 298 299 300 298 296 292 288 287 272 259 251 247 248 247
239 247 259 269 276 282 286 293 299 303 303 303 304 303 299 294 292 286 287 298 302 304 301 300 300 299 299 298 297 296 293 290 288 287 289 289 286 285 272 254 248 246 244
239 246 256 265 271 276 284 290 294 300 303 305 306 305 299 292 290 287 286 294 298 300 299 299 299 299 298 299 297 296 293 291 288 285 284 284 286 283 279 259 248 246 243
241 245 254 262 266 272 280 287 295 301 304 306 306 301 298 297 294 290 286 288 296 296 300 297 301 297 296 294 293 290 280 279 280 282 283 285 283 274 269 261 252 245 243
238 244 250 257 264 271 279 287 294 302 302 302 300 298 297 296 293 291 287 281 272 287 294 298 294 294 290 291 294 287 284 280 279 277 268 261 264 265 264 265 262 253 243
237 241 246 254 261 271 280 287 295 297 295 296 297 296 296 298 294 290 284 277 265 264 275 291 293 289 290 290 286 285 282 283 282 271 268 262 258 258 259 259 263 259 249
233 237 244 253 261 270 278 286 290 290 292 295 296 298 298 299 295 290 288 284 275 263 264 282 284 290 288 288 287 283 282 282 280 279 274 267 260 257 253 252 256 258 253
231 237 246 254 264 273 280 285 288 291 293 296 297 298 301 299 296 297 297 296 292 280 267 270 287 291 290 292 291 287 281 279 279 281 278 274 260 266 256 248 252 256 247
229 236 245 255 264 272 281 285 290 291 293 296 300 301 302 302 303 305 302 296 291 284 277 272 277 283 289 290 291 287 289 290 292 293 293 275 263 259 252 246 247 249 246
229 237 247 255 262 273 280 286 288 293 296 300 301 304 306 308 308 306 299 295 293 288 283 277 276 279 281 286 286 286 288 290 296 296 290 286 279 265 251 250 246 241 244
230 238 244 252 262 273 280 286 289 293 298 300 305 308 309 311 314 298 292 292 292 287 284 280 275 275 275 280 278 283 282 287 290 293 290 286 281 261 256 241 247 248 248
228 236 243 251 262 273 282 288 291 297 300 302 308 312 312 317 321 302 295 290 287 288 286 283 281 277 274 271 275 277 280 282 286 291 285 290 300 261 252 258 263 250 245
228 234 242 251 263 274 283 286 292 296 299 307 312 316 324 324 319 314 305 296 292 288 282 282 280 278 278 275 276 277 275 277 279 285 291 290 280 284 293 275 279 252 234
226 234 244 252 264 274 282 286 295 298 303 310 320 327 326 321 314 307 302 298 296 295 290 286 279 278 276 278 270 273 277 278 279 281 281 277 286 280 285 285 287 270 240
225 236 243 254 263 273 280 289 293 298 310 320 326 325 317 313 313 310 305 301 301 296 294 288 282 277 273 270 268 272 270 271 269 275 275 277 280 279 278 286 291 267 236
223 237 243 250 260 269 283 288 295 308 315 322 323 316 319 316 315 314 307 302 301 301 301 300 296 282 275 269 264 264 268 269 274 272 271 275 276 262 274 270 281 267 236
Wind_Speed_850mb
22 19 20 21 22 27 33 37 40 41 37 36 39 41 40 41 44 49 50 47 45 47 50 50 50 50 51 52 54 61 67 68 59 63 69 68 66 66 66 68 66 68 79
22 20 21 19 23 30 36 41 43 44 45 45 42 43 45 45 44 45 47 49 51 51 50 52 54 54 52 50 52 54 61 66 69 65 67 72 71 72 73 73 76 75 78
25 22 20 20 25 32 39 45 45 44 45 47 50 52 52 52 52 49 47 47 47 46 48 51 51 54 57 56 53 54 56 62 65 70 72 71 72 74 77 80 81 85 85
24 21 19 21 27 33 39 42 42 42 46 51 55 55 58 61 60 58 52 47 41 41 41 41 45 45 49 52 54 55 58 58 65 69 73 78 75 73 77 83 86 88 90
27 22 20 24 29 36 38 41 42 45 49 53 60 62 62 63 61 48 46 42 42 37 27 41 54 49 45 48 52 52 50 59 65 67 76 75 82 80 77 81 87 90 94
28 22 23 28 34 38 39 40 40 40 47 56 64 68 67 62 57 51 38 31 35 49 53 52 42 52 61 52 45 47 49 46 53 67 71 79 76 84 85 80 85 87 92
29 26 29 37 37 38 38 39 39 43 45 52 64 76 72 58 35 22 36 57 58 50 51 49 64 51 42 59 57 64 67 67 58 52 55 69 81 78 86 88 84 91 97
35 33 38 39 37 36 37 38 39 42 45 47 54 60 38 57 13 47 62 46 53 48 45 53 52 73 78 63 71 74 57 53 57 55 51 56 62 76 85 87 88 89 97
41 37 38 39 40 38 37 38 39 41 46 47 46 41 28 21 79 42 83 36 36 48 58 69 76 75 79 70 77 85 79 67 70 78 79 73 69 75 73 86 92 92 97
49 44 39 42 41 39 39 42 43 42 46 51 53 51 48 54 40 62 62 73 82 80 76 90 88 91 100 100 98 95 99 97 88 81 79 77 74 78 83 84 90 95 97
53 48 41 42 41 40 42 46 45 42 47 54 53 56 58 58 54 58 102 92 94 103 101 101 104 105 109 109 108 108 108 107 107 105 96 96 97 89 89 93 95 95 98
57 48 45 44 42 42 45 48 49 49 52 57 58 58 58 57 59 56 76 111 109 117 111 112 113 114 115 116 111 109 109 108 100 94 96 99 98 103 97 101 102 101 100
59 51 50 46 43 44 47 50 50 52 55 59 59 60 60 60 61 64 74 99 109 127 119 121 111 114 116 114 114 115 116 109 95 92 93 97 102 92 93 95 112 107 104
62 57 51 47 45 46 49 52 52 55 58 59 59 60 63 64 64 65 69 74 100 122 130 122 113 105 107 111 111 91 90 93 90 95 86 88 91 90 102 102 102 124 113
66 58 52 49 48 48 50 51 52 53 54 56 57 60 62 65 67 69 71 72 63 92 133 145 110 107 95 90 97 88 93 90 93 99 100 93 91 91 100 115 109 115 132
67 58 54 50 49 49 51 51 50 49 53 53 58 62 64 66 72 76 78 76 69 79 98 138 148 125 109 102 95 96 100 118 117 117 115 107 109 111 107 108 106 112 125
67 61 54 51 50 50 50 49 47 49 52 55 59 64 66 68 77 82 80 82 82 76 86 140 140 148 127 104 96 96 105 114 116 112 109 108 116 123 124 122 102 111 106
64 55 52 51 50 48 47 47 48 50 54 57 60 64 69 73 78 80 83 84 84 78 77 94 128 129 132 109 96 100 106 111 121 124 116 105 105 98 118 130 113 113 113
62 56 54 51 48 45 45 48 51 52 55 58 61 67 71 74 79 80 82 82 82 79 79 85 108 104 119 112 107 106 114 108 96 86 87 96 107 110 107 118 125 116 115
61 57 53 49 45 43 47 47 51 54 56 60 65 69 73 71 75 75 75 77 83 84 87 91 97 100 96 97 94 94 105 92 93 88 84 90 96 99 100 99 123 106 102
62 57 52 47 43 44 45 45 49 52 57 64 67 69 69 67 68 64 70 77 81 86 87 91 98 94 92 89 88 91 94 96 112 98 97 91 82 83 91 102 82 91 101
64 58 50 46 43 44 40 45 50 53 60 64 67 66 66 70 73 63 67 71 76 86 94 93 98 97 97 98 97 95 94 87 99 91 61 87 65 63 55 54 65 72 95
63 54 48 43 42 39 38 45 49 54 59 61 63 66 71 74 78 83 81 81 86 87 87 94 107 101 104 100 99 100 95 94 104 112 84 103 103 89 79 62 58 77 79
58 50 44 44 39 36 39 46 51 53 55 57 60 65 71 78 78 75 86 92 93 89 89 93 103 110 108 101 109 112 110 107 111 114 84 88 106 95 86 81 71 64 84
56 47 52 41 38 33 40 44 46 48 51 56 61 62 65 83 69 69 81 92 101 102 99 89 93 99 102 100 98 101 109 103 107 104 82 70 83 86 84 87 72 68 83
52 60 44 43 36 32 37 39 40 39 49 56 62 71 75 64 66 76 87 92 101 94 95 97 104 108 91 92 94 90 97 103 94 100 89 78 86 67 64 57 50 41 76
Wind_Direction_850mb
270 280 295 303 315 322 320 324 324 321 320 320 322 322 319 315 312 311 310 307 303 300 299 296 294 293 289 284 274 267 264 262 262 262 261 259 253 250 249 246 245 247 251
260 270 281 293 308 319 325 325 325 327 330 332 333 330 326 323 321 316 312 311 307 304 298 295 293 291 289 287 281 271 263 262 262 258 261 257 257 252 249 247 248 245 250
251 265 276 297 315 321 324 327 329 330 332 332 331 332 329 327 324 321 314 309 305 300 297 294 290 288 287 284 280 276 271 261 259 259 255 259 256 254 251 249 247 246 246
251 260 275 301 316 318 323 326 328 330 333 332 330 329 328 327 327 322 317 311 305 299 297 301 302 299 292 292 285 275 271 269 261 256 257 255 258 256 253 252 250 249 249
250 260 282 306 311 312 321 327 330 332 333 332 328 328 329 326 324 325 320 313 306 306 311 313 309 304 301 298 296 291 280 271 266 262 251 255 255 257 255 253 251 247 248
247 259 280 296 301 308 320 325 327 330 333 332 328 326 328 329 330 320 322 333 329 310 310 313 313 310 310 312 306 306 299 294 283 269 261 255 255 256 257 255 253 250 241
242 258 278 291 297 307 316 320 323 326 333 331 328 328 332 332 325 330 327 317 312 311 303 295 299 295 302 306 297 295 295 296 295 285 281 270 257 252 257 257 254 252 248
242 256 276 288 293 300 306 314 316 322 325 330 326 327 325 337 300 307 298 301 304 294 293 295 298 294 298 299 294 294 293 286 285 283 279 260 265 260 252 256 255 253 249
240 252 271 284 289 295 302 307 309 317 316 323 321 313 322 308 311 320 311 312 301 297 296 292 295 297 302 302 299 297 294 297 286 285 279 276 262 257 259 253 255 252 252
240 248 264 278 285 292 298 301 305 311 307 313 314 312 305 299 313 313 312 301 307 307 305 303 303 301 300 300 299 299 297 295 285 289 291 288 271 264 253 252 251 252 249
239 248 263 275 282 288 292 296 299 304 306 307 307 306 303 298 292 287 300 303 303 302 302 301 300 299 300 299 299 298 299 300 298 296 292 288 287 272 259 251 247 248 247
239 247 259 269 276 282 286 293 299 303 303 303 304 303 299 294 292 286 287 298 302 304 301 300 300 299 299 298 297 296 293 290 288 287 289 289 286 285 272 254 248 246 244
239 246 256 265 271 276 284 290 294 300 303 305 306 305 299 292 290 287 286 294 298 300 299 299 299 299 298 299 297 296 293 291 288 285 284 284 286 283 279 259 248 246 243
241 245 254 262 266 272 280 287 295 301 304 306 306 301 298 297 294 290 286 288 296 296 300 297 301 297 296 294 293 290 280 279 280 282 283 285 283 274 269 261 252 245 243
238 244 250 257 264 271 279 287 294 302 302 302 300 298 297 296 293 291 287 281 272 287 294 298 294 294 290 291 294 287 284 280 279 277 268 261 264 265 264 265 262 253 243
237 241 246 254 261 271 280 287 295 297 295 296 297 296 296 298 294 290 284 277 265 264 275 291 293 289 290 290 286 285 282 283 282 271 268 262 258 258 259 259 263 259 249
233 237 244 253 261 270 278 286 290 290 292 295 296 298 298 299 295 290 288 284 275 263 264 282 284 290 288 288 287 283 282 282 280 279 274 267 260 257 253 252 256 258 253
231 237 246 254 264 273 280 285 288 291 293 296 297 298 301 299 296 297 297 296 292 280 267 270 287 291 290 292 291 287 281 279 279 281 278 274 260 266 256 248 252 256 247
229 236 245 255 264 272 281 285 290 291 293 296 300 301 302 302 303 305 302 296 291 284 277 272 277 283 289 290 291 287 289 290 292 293 293 275 263 259 252 246 247 249 246
229 237 247 255 262 273 280 286 288 293 296 300 301 304 306 308 308 306 299 295 293 288 283 277 276 279 281 286 286 286 288 290 296 296 290 286 279 265 251 250 246 241 244
230 238 244 252 262 273 280 286 289 293 298 300 305 308 309 311 314 298 292 292 292 287 284 280 275 275 275 280 278 283 282 287 290 293 290 286 281 261 256 241 247 248 248
228 236 243 251 262 273 282 288 291 297 300 302 308 312 312 317 321 302 295 290 287 288 286 283 281 277 274 271 275 277 280 282 286 291 285 290 300 261 252 258 263 250 245
228 234 242 251 263 274 283 286 292 296 299 307 312 316 324 324 319 314 305 296 292 288 282 282 280 278 278 275 276 277 275 277 279 285 291 290 280 284 293 275 279 252 234
226 234 244 252 264 274 282 286 295 298 303 310 320 327 326 321 314 307 302 298 296 295 290 286 279 278 276 278 270 273 277 278 279 281 281 277 286 280 285 285 287 270 240
225 236 243 254 263 273 280 289 293 298 310 320 326 325 317 313 313 310 305 301 301 296 294 288 282 277 273 270 268 272 270 271 269 275 275 277 280 279 278 286 291 267 236
223 237 243 250 260 269 283 288 295 308 315 322 323 316 319 316 315 314 307 302 301 301 301 300 296 282 275 269 264 264 268 269 274 272 271 275 276 262 274 270 281 267 236